Weather History for Watertown, SD

Change the Weather History Date:

Friday, February 8, 2013

  Actual Average Record
Temperature  
Mean Temperature 22 °F 15 °F  
Max Temperature 26 °F 25 °F 57 °F (2002)
Min Temperature 17 °F 5 °F -35 °F (1899)
Degree Days  
Heating Degree Days 43 50  
Month to date heating degree days 394 404  
Since 1 July heating degree days 5364 5486  
Cooling Degree Days 0 0  
Month to date cooling degree days 0 0  
Year to date cooling degree days 0 0  
Moisture  
Dew Point 18 °F    
Average Humidity 89    
Maximum Humidity 96    
Minimum Humidity 81    
Precipitation  
Precipitation 0.00 in 0.02 in 0.29 in (1966)
Month to date precipitation 0.07 0.13  
Year to date precipitation 0.35 0.65  
Snow  
Snow 0.00 in - - ()
Month to date snowfall 0.8  
Since 1 July snowfall 13.4  
Snow Depth -    
Sea Level Pressure  
Sea Level Pressure 30.18 in    
Wind  
Wind Speed 14 mph (SSE)    
Max Wind Speed 26 mph    
Max Gust Speed 35 mph    
Visibility 9 miles    
Events      
T = Trace of Precipitation, MM = Missing Value Source: NWS Daily Summary

Daily Weather History Graph

Daily Weather History Graph

Search for Another Location

Airport:

Trip Planner

Search our weather history database for the weather conditions in past years. The results will help you decide how hot, cold, wet, or windy it might be!

Date:

Astronomy

Feb. 08, 2013 Rise Set
Actual Time 7:38 AM CST 5:47 PM CST
Civil Twilight 7:08 AM CST 6:17 PM CST
Nautical Twilight 6:33 AM CST 6:52 PM CST
Astronomical Twilight 5:59 AM CST 7:26 PM CST
Moon 6:10 AM CST (2/8) 4:20 PM CST (2/8)
Length of Visible Light 11h 09m
Length of Day
10h 08m
Waning Crescent, 3% of the Moon is Illuminated
Feb 8
Waning Crescent
Feb 10
New
Feb 17
First Quarter
Feb 25
Full
Mar 4
Last Quarter

Hourly Weather History & Observations

Time (CST) Temp. Windchill Dew Point Humidity Pressure Visibility Wind Dir Wind Speed Gust Speed Precip Events Conditions
12:53 AM 17.1 °F 8.7 °F 16.0 °F 96% 30.31 in 9.0 mi East 5.8 mph - N/A   Overcast
1:02 AM 17.6 °F 9.3 °F 15.8 °F 93% 30.23 in 10.0 mi SSE 5.8 mph - N/A   Overcast
1:53 AM 17.1 °F 7.6 °F 15.1 °F 92% 30.32 in 10.0 mi SE 6.9 mph - N/A   Overcast
2:53 AM 17.1 °F 7.6 °F 15.1 °F 92% 30.32 in 10.0 mi SSE 6.9 mph - N/A   Overcast
3:53 AM 17.1 °F 5.8 °F 15.1 °F 92% 30.33 in 8.0 mi SSE 9.2 mph - N/A   Overcast
4:53 AM 17.1 °F 6.6 °F 15.1 °F 92% 30.31 in 9.0 mi SSE 8.1 mph - N/A   Overcast
5:53 AM 17.1 °F 5.8 °F 15.1 °F 92% 30.31 in 10.0 mi SSE 9.2 mph - N/A   Overcast
6:53 AM 17.1 °F 4.3 °F 15.1 °F 92% 30.30 in 10.0 mi SSE 11.5 mph - N/A   Overcast
7:53 AM 17.1 °F 3.0 °F 15.1 °F 92% 30.30 in 10.0 mi South 13.8 mph - N/A   Overcast
8:53 AM 18.0 °F 3.1 °F 16.0 °F 92% 30.29 in 8.0 mi SSE 16.1 mph - N/A   Overcast
9:40 AM 17.6 °F 1.7 °F 15.8 °F 93% 30.19 in 5.0 mi South 18.4 mph - N/A   Overcast
9:53 AM 18.0 °F 1.7 °F 16.0 °F 92% 30.28 in 7.0 mi SSE 19.6 mph 24.2 mph N/A   Overcast
10:53 AM 19.9 °F 6.2 °F 18.0 °F 92% 30.29 in 7.0 mi SSE 15.0 mph 23.0 mph N/A   Overcast
11:53 AM 19.9 °F 4.3 °F 18.0 °F 92% 30.26 in 8.0 mi SSE 19.6 mph 26.5 mph N/A   Overcast
12:53 PM 21.0 °F 6.2 °F 19.0 °F 92% 30.21 in 7.0 mi SSE 18.4 mph 27.6 mph N/A   Overcast
1:53 PM 21.9 °F 7.8 °F 19.9 °F 92% 30.17 in 7.0 mi SSE 17.3 mph 31.1 mph N/A   Overcast
2:22 PM 21.2 °F 6.4 °F 19.4 °F 93% 30.07 in 9.0 mi SSE 18.4 mph 27.6 mph N/A   Overcast
2:53 PM 23.0 °F 8.0 °F 21.0 °F 92% 30.12 in 9.0 mi SSE 20.7 mph 34.5 mph N/A   Overcast
3:53 PM 24.1 °F 10.1 °F 21.0 °F 88% 30.11 in 10.0 mi SE 18.4 mph 32.2 mph N/A   Overcast
4:53 PM 24.1 °F 10.1 °F 21.9 °F 91% 30.09 in 8.0 mi SE 18.4 mph 28.8 mph N/A   Overcast
5:53 PM 24.1 °F 10.6 °F 21.9 °F 91% 30.08 in 8.0 mi SSE 17.3 mph 26.5 mph N/A   Overcast
6:34 PM 24.8 °F 12.4 °F 21.2 °F 86% 29.99 in 10.0 mi SSE 15.0 mph 23.0 mph N/A   Scattered Clouds
6:53 PM 24.1 °F 11.5 °F 21.0 °F 88% 30.07 in 10.0 mi SSE 15.0 mph - N/A   Clear
7:53 PM 26.1 °F 13.6 °F 21.9 °F 84% 30.06 in 10.0 mi SSE 16.1 mph 21.9 mph N/A   Clear
8:53 PM 25.0 °F 11.7 °F 21.9 °F 88% 30.05 in 10.0 mi SSE 17.3 mph 25.3 mph N/A   Clear
9:53 PM 25.0 °F 13.1 °F 21.9 °F 88% 30.04 in 10.0 mi SSE 13.8 mph - N/A   Clear
10:53 PM 25.0 °F 12.2 °F 21.0 °F 85% 30.02 in 10.0 mi South 16.1 mph 25.3 mph N/A   Clear
11:53 PM 26.1 °F 14.0 °F 23.0 °F 88% 30.01 in 10.0 mi South 15.0 mph - N/A   Mostly Cloudy